Regional Weather Roundup
Issued by NWS

Home | Current Version | Previous Version | Text Only | Print | Product List | Glossary Off
Versions: 1 2 3 4 5 6 7 8 9 10 11 12 13 14 15 16 17 18 19 20 21 22 23 24 25 26 27

000
ASUS45 KTFX 232110
RWRMT
MONTANA REGIONAL WEATHER ROUNDUP
NATIONAL WEATHER SERVICE GREAT FALLS MT
300 PM MDT FRI JUN 23 2017

NOTE: "FAIR" INDICATES FEW OR NO CLOUDS BELOW 12000 FEET WITH NO
SIGNIFICANT WEATHER AND/OR OBSTRUCTIONS TO VISIBILITY.

MTZ001>007-043-232200-
WEST OF THE DIVIDE

CITY           SKY/WX    TMP DP  RH WIND       PRES   REMARKS
KALISPELL      PTSUNNY   71  39  31 E7        30.21F
MISSOULA       SUNNY     75  35  23 VRB5      30.20F
BUTTE          SUNNY     66  26  22 VRB5      30.27F
MULLAN PASS    SUNNY     63  27  25 VRB5      30.33R
ANACONDA         N/A     64  30  27 N6        30.26S
DEER LODGE       N/A     66  32  28 E6G16     30.27F
EUREKA           N/A     73  36  25 MISG      30.21S
HAMILTON         N/A     72  34  25 NW6       30.21F
$$

MTZ008-052>055-232200-
SOUTHWEST MONTANA

CITY           SKY/WX    TMP DP  RH WIND       PRES   REMARKS
BOZEMAN        SUNNY     70  32  24 VRB7      30.26F
DILLON         SUNNY     67  33  28 NW6       30.25F
W YELLOWSTONE  SUNNY     64  25  22 VRB3G12   30.28S
ENNIS          SUNNY     66  30  26 CALM      30.31F
THREE FORKS      N/A     68  32  26 SW2       30.22F
$$

MTZ009-010-012-014-046-048-049-054-232200-
EAST SLOPES AND CENTRAL MONTANA

CITY           SKY/WX    TMP DP  RH WIND       PRES   REMARKS
CUT BANK       PTSUNNY   63  38  39 NE5G17    30.28S
GREAT FALLS    MOSUNNY   67  35  30 VRB3      30.25F
MALMSTROM AFB  MOSUNNY   66  38  35 E7        30.26F
HELENA         SUNNY     71  33  24 CALM      30.23F
CHOTEAU          N/A     64  39  39 VRB3      30.29S
$$

MTZ011-013-016-021-045-047-050-051-232200-
NORTH CENTRAL MONTANA

CITY           SKY/WX    TMP DP  RH WIND       PRES   REMARKS
HAVRE          CLOUDY    68  34  28 NW17G24   30.23F
LEWISTOWN      CLOUDY    61  36  39 VRB6      30.27F
N BAR RANCH      N/A     63  36  36 NW13G21   30.29S
CHINOOK          N/A     68  34  28 NW14G21   30.21F
FORT BENTON      N/A     66  36  32 MISG      30.27F
$$

MTZ017>020-022>027-061-062-232200-
NORTHEAST MONTANA

CITY           SKY/WX    TMP DP  RH WIND       PRES   REMARKS
GLASGOW        MOSUNNY   66  29  24 NW23G30   30.17F
JORDAN           N/A     70  29  21 NW21G29   30.20F
SIDNEY         MOSUNNY   68  32  26 NW20G29   30.13F
WOLF POINT     PTSUNNY   70  31  23 NW23G31   30.15F
MALTA          MOSUNNY   68  30  24 N17G24    30.19F
PLENTYWOOD       N/A     61  32  33 NW22G35   30.11S
POPLAR           N/A     64  34  32 NW22G30   30.14F
$$

MTZ028>42-056>058-232200-
SOUTHCENTRAL AND SOUTHEAST MONTANA

CITY           SKY/WX    TMP DP  RH WIND       PRES   REMARKS
BAKER          MOSUNNY   66  29  24 NW18G35   30.18F
BILLINGS       MOSUNNY   70  32  24 W9G18     30.23F
LIVINGSTON     SUNNY     69  33  26 VRB7      30.24F
MILES CITY     MOSUNNY   69  27  20 NW18G30   30.19F
BIG TIMBER     PTSUNNY   66  28  24 VRB5      30.26F
FORSYTH          N/A     68  28  22 NW13G22   30.21S
ROUNDUP          N/A     67  32  27 SW7       30.13F
$$

REGIONAL REPORTS...DAKOTAS

CITY           SKY/WX    TMP DP  RH WIND       PRES   REMARKS
WILLISTON      PTSUNNY   68  32  26 NW15G29   30.12S
MINOT          PTSUNNY   62  37  39 NW25G37   30.04S
DICKINSON      PTSUNNY   63  29  27 NW25G36   30.10S
BEACH            N/A     66  28  24 NW21G30   30.18S
CROSBY         PTSUNNY   61  32  33 NW24G38   30.09F
TIOGA          PTSUNNY   59  34  38 NW25      30.11S
WATFORD CITY     N/A     64  36  34 NW23G30   30.10S
BISMARCK       PTSUNNY   67  36  31 NW28G35   30.05S
GRAND FORKS    PTSUNNY   65  43  44 NW21G29   29.89S
FARGO          CLOUDY    65  46  50 NW16G28   29.91S
BUFFALO SD       N/A     67  29  24 NW25G40   30.10S
RAPID CITY     SUNNY     69  33  26 N20G37    30.15S
$$

REGIONAL REPORTS...WYOMING/IDAHO/WASHINGTON

CITY           SKY/WX    TMP DP  RH WIND       PRES   REMARKS
GILLETTE       MOSUNNY   68  32  26 NW14G30   30.22F
SHERIDAN       PTSUNNY   67  35  30 NW12G18   30.24F
BUFFALO WY     CLOUDY    61  33  35 N13G23    30.28S
CODY           SUNNY     65  28  24 VRB3      30.27F
YELLOWSTONE LA   N/A     58  33  39 E5        30.34F
IDAHO FALLS    SUNNY     72  31  22 VRB5      30.22F
SALMON         SUNNY     72  30  21 NW3       30.18F
BOISE          SUNNY     78  28  16 W8        30.16F
SPOKANE        MOSUNNY   77  29  17 N9        30.22F
$$

REGIONAL REPORTS...ALBERTA

CITY           SKY/WX    TMP DP  RH WIND       PRES   REMARKS
EDMONTON       MOSUNNY   66  39  37 N9G23     30.20R
CALGARY        PTSUNNY   63  34  34 NW8       30.26S
LETHBRIDGE     PTSUNNY   66  37  34 W8G22     30.25F
MEDICINE HAT   PTSUNNY   72  37  28 N13G20    30.20F
WATERTON GATE    N/A     61  41  48 E2          N/A
CARDSTON         N/A     66  41  39 N2          N/A
MILK RIVER       N/A     66  41  39 NW13        N/A
$$

REGIONAL REPORTS...SASKATCHEWAN

CITY           SKY/WX    TMP DP  RH WIND       PRES   REMARKS
SWIFT CURRENT  CLOUDY    59  37  44 NW23G33   30.15F
REGINA         PTSUNNY   57  36  44 NW18G33   30.09S
SASKATOON      PTSUNNY   64  34  32 N17G26    30.11R
CYPRESS HILLS    N/A     55  34  44 NW10G17     N/A
VAL MARIE        N/A     66  34  30 N18G24      N/A
ROCKGLEN         N/A     59  34  38 NW18G28     N/A
ASSINIBOIA       N/A     66  34  30 NW15        N/A
$$




USA.gov is the U.S. government's official web portal to all federal, state and local government web resources and services.